OK1FET-15 Weather Reports


time (UTC)temp
C
wind
direction
speed
KPH
gust
KPH
rain 1hr
cm
rain 24hr
cm
rain mn
cm
humidity
%
barometer
mb
20260505062804 20 137 0.0 0.0 0.00 0.00 0.00 64 1008.1
20260505062256 20 137 0.0 3.2 0.00 0.00 0.00 60 1008.1
20260505061749 20 83 0.0 0.0 0.00 0.00 0.00 68 1008.1
20260505061241 19 105 0.0 3.2 0.00 0.00 0.00 70 1008.1
20260505060733 19 120 1.6 6.4 0.00 0.00 0.00 71 1008.2
20260505060225 18 109 0.0 0.0 0.00 0.00 0.00 75 1008.3
20260505055718 18 83 0.0 0.0 0.00 0.00 0.00 84 1008.4
20260505055210 17 97 0.0 0.0 0.00 0.00 0.00 88 1008.5
20260505054703 16 85 0.0 0.0 0.00 0.00 0.00 89 1008.4
20260505054138 16 140 0.0 0.0 0.00 0.00 0.00 89 1008.4
20260505053613 16 112 0.0 0.0 0.00 0.00 0.00 90 1008.4
20260505053048 16 132 0.0 0.0 0.00 0.00 0.00 90 1008.4
20260505052523 15 117 0.0 0.0 0.00 0.00 0.00 90 1008.5
20260505051958 15 110 0.0 0.0 0.00 0.00 0.00 90 1008.5
20260505051433 15 86 0.0 0.0 0.00 0.00 0.00 90 1008.5
20260505050908 15 126 0.0 0.0 0.00 0.00 0.00 90 1008.4
20260505050344 15 122 0.0 0.0 0.00 0.00 0.00 90 1008.5
20260504182423 18 38 0.0 0.0 0.00 0.00 0.00 41 1010.7
20260504181859 18 7 0.0 0.0 0.00 0.00 0.00 40 1010.7
20260504181334 18 327 0.0 0.0 0.00 0.00 0.00 39 1010.7
20260504180809 19 293 0.0 0.0 0.00 0.00 0.00 39 1010.6
20260504180243 19 270 0.0 0.0 0.00 0.00 0.00 37 1010.6
20260504175736 20 229 0.0 0.0 0.00 0.00 0.00 37 1010.6
20260504175228 20 225 0.0 0.0 0.00 0.00 0.00 36 1010.5
20260504174720 20 225 0.0 0.0 0.00 0.00 0.00 36 1010.5
20260504174212 20 225 0.0 0.0 0.00 0.00 0.00 36 1010.4
20260504173704 21 225 0.0 0.0 0.00 0.00 0.00 36 1010.4
20260504173157 21 225 0.0 0.0 0.00 0.00 0.00 36 1010.4
20260504172649 21 225 0.0 0.0 0.00 0.00 0.00 36 1010.5
20260504172141 21 225 0.0 0.0 0.00 0.00 0.00 35 1010.6
20260504171633 22 225 0.0 0.0 0.00 0.00 0.00 34 1010.6
20260504171125 22 225 0.0 0.0 0.00 0.00 0.00 34 1010.6
20260504170617 22 225 0.0 0.0 0.00 0.00 0.00 34 1010.6
20260504170109 22 181 0.0 0.0 0.00 0.00 0.00 34 1010.7
20260504160441 25 110 0.0 0.0 0.00 0.00 0.00 30 1011.0
20260504150809 29 182 0.0 1.6 0.00 0.00 0.00 25 1011.4
20260504150300 29 91 0.0 0.0 0.00 0.00 0.00 25 1011.4
20260504141133 31 119 0.0 0.0 0.00 0.00 0.00 24 1011.6
20260504140625 30 180 0.0 0.0 0.00 0.00 0.00 24 1011.7
20260504140116 30 232 0.0 0.0 0.00 0.00 0.00 24 1011.8
20260504130442 27 105 0.0 0.0 0.00 0.00 0.00 26 1012.3
20260504120257 32 188 0.0 0.0 0.00 0.00 0.00 21 1012.6
20260504110618 31 62 0.0 0.0 0.00 0.00 0.00 22 1013.2
20260504110110 31 220 0.0 1.6 0.00 0.00 0.00 24 1013.2
20260504100432 30 164 1.6 4.8 0.00 0.00 0.00 27 1013.9
20260504081636 23 37 0.0 3.2 0.00 0.00 0.00 39 1014.1
20260504081128 23 77 0.0 0.0 0.00 0.00 0.00 39 1014.1
20260504080619 23 122 0.0 3.2 0.00 0.00 0.00 40 1014.1
20260504080111 23 111 0.0 0.0 0.00 0.00 0.00 40 1014.1